Weather History for Delaware, OH

Change the Weather History Date:

Monday, July 1, 2013

  Actual Average Record
Temperature  
Mean Temperature 68 °F -  
Max Temperature 75 °F 82 °F 96 °F (1941)
Min Temperature 62 °F 60 °F 41 °F (1988)
Cooling Degree Days 4    
Growing Degree Days 18 (Base 50)    
Moisture  
Dew Point 63 °F    
Average Humidity 86    
Maximum Humidity 100    
Minimum Humidity 73    
Precipitation  
Precipitation 0.09 in - - ()
Sea Level Pressure  
Sea Level Pressure 29.91 in    
Wind  
Wind Speed 6 mph (NNE)    
Max Wind Speed 15 mph    
Max Gust Speed 16 mph    
Visibility 8 miles    
Events Rain , Thunderstorm    
Averages and records for this station are not official NWS values.
T = Trace of Precipitation, MM = Missing Value Source: NWS Daily Summary

Daily Weather History Graph

Daily Weather History Graph

Search for Another Location

Airport:

Trip Planner

Search our weather history database for the weather conditions in past years. The results will help you decide how hot, cold, wet, or windy it might be!

Date:

Astronomy

Jul. 01, 2013 Rise Set
Actual Time 6:06 AM EDT 9:06 PM EDT
Civil Twilight 5:33 AM EDT 9:38 PM EDT
Nautical Twilight 4:51 AM EDT 10:20 PM EDT
Astronomical Twilight 4:03 AM EDT 11:09 PM EDT
Moon 1:36 AM EDT 3:19 PM EDT
Length of Visible Light 16h 05m
Length of Day
14h 59m
Waning Crescent, 35% of the Moon is Illuminated
Jul 1
Waning Crescent
Jul 8
New
Jul 15
First Quarter
Jul 22
Full
Jul 29
Last Quarter

Hourly Weather History & Observations

Time (EDT) Temp. Dew Point Humidity Pressure Visibility Wind Dir Wind Speed Gust Speed Precip Events Conditions
12:16 AM 64.4 °F 59.0 °F 83% 29.88 in 10.0 mi North 5.8 mph - N/A   Clear
12:36 AM 62.6 °F 59.0 °F 88% 29.87 in 10.0 mi North 4.6 mph - N/A   Clear
12:57 AM 62.6 °F 59.0 °F 88% 29.87 in 10.0 mi North 4.6 mph - N/A   Scattered Clouds
1:16 AM 62.6 °F 59.0 °F 88% 29.87 in 10.0 mi North 4.6 mph - N/A   Scattered Clouds
1:36 AM 62.6 °F 59.0 °F 88% 29.88 in 10.0 mi NNW 4.6 mph - N/A   Clear
1:56 AM 62.6 °F 59.0 °F 88% 29.87 in 10.0 mi North 5.8 mph - N/A   Clear
2:16 AM 62.6 °F 59.0 °F 88% 29.87 in 10.0 mi North 5.8 mph - N/A   Clear
2:36 AM 62.6 °F 59.0 °F 88% 29.87 in 10.0 mi NNE 6.9 mph - N/A   Scattered Clouds
2:56 AM 62.6 °F 59.0 °F 88% 29.87 in 10.0 mi North 4.6 mph - N/A   Scattered Clouds
3:16 AM 62.6 °F 59.0 °F 88% 29.87 in 10.0 mi NNE 5.8 mph - N/A   Mostly Cloudy
3:36 AM 62.6 °F 59.0 °F 88% 29.87 in 10.0 mi North 6.9 mph - N/A   Mostly Cloudy
3:56 AM 62.6 °F 59.0 °F 88% 29.87 in 10.0 mi North 5.8 mph - N/A   Scattered Clouds
4:16 AM 62.6 °F 59.0 °F 88% 29.87 in 10.0 mi North 4.6 mph - N/A   Scattered Clouds
4:36 AM 62.6 °F 60.8 °F 94% 29.87 in 10.0 mi NNE 6.9 mph - N/A   Clear
4:56 AM 62.6 °F 60.8 °F 94% 29.87 in 10.0 mi North 4.6 mph - N/A   Clear
5:16 AM 62.6 °F 60.8 °F 94% 29.88 in 10.0 mi North 4.6 mph - N/A   Mostly Cloudy
5:37 AM 64.4 °F 60.8 °F 88% 29.87 in 10.0 mi North 6.9 mph - N/A   Overcast
5:56 AM 64.4 °F 60.8 °F 88% 29.88 in 10.0 mi North 3.5 mph - 0.01 in Rain Light Rain
6:16 AM 62.6 °F 60.8 °F 94% 29.88 in 10.0 mi North 4.6 mph - N/A   Mostly Cloudy
6:37 AM 62.6 °F 60.8 °F 94% 29.89 in 5.0 mi ENE 3.5 mph - 0.07 in Rain Light Rain
6:56 AM 62.6 °F 60.8 °F 94% 29.89 in 7.0 mi NE 5.8 mph - 0.07 in Rain Light Rain
7:16 AM 62.6 °F 62.6 °F 100% 29.89 in 7.0 mi NNE 5.8 mph - N/A   Overcast
7:37 AM 64.4 °F 62.6 °F 94% 29.90 in 7.0 mi Calm Calm - N/A   Mostly Cloudy
7:56 AM 62.6 °F 62.6 °F 100% 29.90 in 7.0 mi NE 3.5 mph - N/A Rain Light Rain
8:16 AM 64.4 °F 62.6 °F 94% 29.89 in 7.0 mi NE 4.6 mph - N/A Thunderstorm Overcast
8:37 AM 64.4 °F 62.6 °F 94% 29.90 in 7.0 mi North 3.5 mph - N/A   Mostly Cloudy
8:56 AM 64.4 °F 62.6 °F 94% 29.90 in 7.0 mi NNE 4.6 mph - N/A Thunderstorm Overcast
9:16 AM 64.4 °F 62.6 °F 94% 29.91 in 10.0 mi NNE 5.8 mph - N/A   Overcast
9:37 AM 64.4 °F 62.6 °F 94% 29.90 in 10.0 mi NE 5.8 mph - N/A   Light Drizzle
9:56 AM 64.4 °F 62.6 °F 94% 29.91 in 10.0 mi ENE 4.6 mph - N/A   Overcast
10:16 AM 66.2 °F 62.6 °F 88% 29.91 in 10.0 mi East 5.8 mph - N/A   Overcast
10:37 AM 68.0 °F 62.6 °F 83% 29.91 in 10.0 mi ESE 3.5 mph - N/A   Overcast
10:56 AM 68.0 °F 64.4 °F 88% 29.91 in 10.0 mi SE 3.5 mph - N/A Thunderstorm Overcast
11:16 AM 69.8 °F 64.4 °F 83% 29.92 in 10.0 mi Calm Calm - N/A   Overcast
11:37 AM 71.6 °F 64.4 °F 78% 29.92 in 10.0 mi North 5.8 mph - N/A   Overcast
11:56 AM 71.6 °F 64.4 °F 78% 29.92 in 10.0 mi NNW 8.1 mph - N/A   Overcast
12:16 PM 71.6 °F 64.4 °F 78% 29.92 in 10.0 mi North 6.9 mph - N/A   Overcast
12:36 PM 71.6 °F 64.4 °F 78% 29.93 in 10.0 mi North 5.8 mph - N/A   Overcast
12:56 PM 73.4 °F 66.2 °F 78% 29.92 in 10.0 mi NNW 6.9 mph - N/A Thunderstorm Scattered Clouds
1:16 PM 73.4 °F 66.2 °F 78% 29.93 in 10.0 mi North 9.2 mph - N/A   Mostly Cloudy
1:36 PM 73.4 °F 66.2 °F 78% 29.92 in 10.0 mi North 10.4 mph - N/A   Mostly Cloudy
1:56 PM 73.4 °F 64.4 °F 73% 29.92 in 10.0 mi North 8.1 mph - N/A   Overcast
2:16 PM 71.6 °F 64.4 °F 78% 29.92 in 10.0 mi NNW 9.2 mph - N/A Thunderstorm Thunderstorm
2:36 PM 71.6 °F 64.4 °F 78% 29.92 in 10.0 mi NNW 11.5 mph - N/A   Scattered Clouds
2:56 PM 75.2 °F 68.0 °F 78% 29.91 in 10.0 mi North 13.8 mph - N/A   Scattered Clouds
3:16 PM 73.4 °F 64.4 °F 73% 29.91 in 10.0 mi North 11.5 mph 16.1 mph N/A   Clear
3:36 PM 73.4 °F 66.2 °F 78% 29.91 in 10.0 mi North 12.7 mph - N/A   Scattered Clouds
3:56 PM 73.4 °F 66.2 °F 78% 29.92 in 10.0 mi North 12.7 mph - N/A   Scattered Clouds
4:16 PM 73.4 °F 64.4 °F 73% 29.92 in 10.0 mi North 15.0 mph - N/A   Mostly Cloudy
4:36 PM 71.6 °F 64.4 °F 78% 29.92 in 10.0 mi NNE 13.8 mph - N/A Rain Light Rain
4:56 PM 71.6 °F 66.2 °F 83% 29.92 in 7.0 mi NE 10.4 mph - 0.01 in Rain Rain
5:16 PM 71.6 °F 68.0 °F 88% 29.92 in 10.0 mi NNE 10.4 mph - N/A   Overcast
5:36 PM 71.6 °F 66.2 °F 83% 29.92 in 7.0 mi NNE 9.2 mph - N/A Rain Light Rain
5:56 PM 71.6 °F 66.2 °F 83% 29.92 in 7.0 mi North 10.4 mph 16.1 mph N/A   Overcast
6:16 PM 71.6 °F 66.2 °F 83% 29.92 in 7.0 mi North 10.4 mph - N/A   Mostly Cloudy
6:36 PM 71.6 °F 64.4 °F 78% 29.92 in 7.0 mi North 11.5 mph - N/A   Overcast
6:56 PM 69.8 °F 64.4 °F 83% 29.92 in 7.0 mi NNE 10.4 mph - N/A   Overcast
7:17 PM 69.8 °F 64.4 °F 83% 29.93 in 5.0 mi North 10.4 mph - N/A   Haze
7:36 PM 68.0 °F 62.6 °F 83% 29.95 in 5.0 mi North 11.5 mph - N/A   Haze
7:56 PM 68.0 °F 62.6 °F 83% 29.96 in 5.0 mi North 6.9 mph - N/A   Haze
8:17 PM 68.0 °F 62.6 °F 83% 29.96 in 5.0 mi North 8.1 mph - N/A   Overcast
8:36 PM 66.2 °F 62.6 °F 88% 29.96 in 4.0 mi North 6.9 mph - N/A   Light Drizzle
8:56 PM 66.2 °F 62.6 °F 88% 29.95 in 4.0 mi North 6.9 mph - N/A   Mostly Cloudy
9:17 PM 66.2 °F 62.6 °F 88% 29.97 in 5.0 mi North 6.9 mph - N/A   Mostly Cloudy
9:36 PM 66.2 °F 62.6 °F 88% 29.96 in 5.0 mi NNE 6.9 mph - N/A   Mostly Cloudy
9:56 PM 66.2 °F 62.6 °F 88% 29.94 in 5.0 mi NNE 10.4 mph - N/A   Scattered Clouds
10:17 PM 66.2 °F 62.6 °F 88% 29.94 in 5.0 mi NNE 9.2 mph - N/A   Scattered Clouds
10:36 PM 66.2 °F 62.6 °F 88% 29.95 in 5.0 mi NNE 5.8 mph - N/A   Mostly Cloudy
10:56 PM 66.2 °F 62.6 °F 88% 29.94 in 5.0 mi NE 6.9 mph - N/A Rain Light Rain
11:17 PM 66.2 °F 62.6 °F 88% 29.95 in 5.0 mi NNE 4.6 mph - N/A   Scattered Clouds
11:36 PM 66.2 °F 62.6 °F 88% 29.96 in 5.0 mi NNW 3.5 mph - N/A   Mostly Cloudy
11:56 PM 64.4 °F 62.6 °F 94% 29.95 in 5.0 mi NNW 5.8 mph - N/A   Scattered Clouds